Volver al catálogo

CZ-4 DEB

ActivoSSO
NORAD 20903·DEBRIS·🇨🇳 China

Lanzado Sep 3, 1990 desde Taiyuan Satellite Launch Center

Loading…

Próximos Pases (próximas 24 horas)

TLE

ActualizadoSource: Space-Track

Época: Sep 14, 2026, 23:21 UTC

1 20903U 90081BP  26257.97300600  .00000347  00000-0  14747-3 0  9999
2 20903  98.4280 257.4051 0055214 174.3560 214.1180 14.30271604867022

Sigue CZ-4 DEB en tiempo real con AllMySat

Download on the App Store